Погода в Волове

Россия / Тульская область     53°33′03″N   38°01′42″E
темп.,
°C
ветер,
м/с
пор.,
м/с
влажн.,
%
обл.,
%
осадки,
мм/ч
давл.,
гПа
погр.,
м
7 мая, пт
пт700:00+8зюз1290100 2.1 1010159
03:00+7юз2493100 2.4 1011138
06:00+7зсз3691100 0.3 1011284
09:00+10зсз466192 0.3 1012803
12:00+12з45465 0.0 10141840
15:00+14зюз453892 0.0 10142241
18:00+13юз3450100 0.0 1014653
21:00+9юв476287 0.0 1014122
8 мая, сб
сб800:00+8ююв51362100 0.0 1013283
03:00+8ююв61567100 0.0 1012407
06:00+8ююв81684100 0.8 1011811
09:00+8ююв101892100 5.9 1008790
12:00+8ююв91794100 7.1 1006756
15:00+10ю81595100 9.6 1004899
18:00+11ююз61195100 0.8 1004631
21:00+9юз51095100 1.0 1005437
9 мая, вс
вс900:00+6юз6986100 0.0 1005738
03:00+4ююз71193100 0.1 1005677
06:00+5з61093100 0.1 1007742
09:00+3сз81396100 0.2 1011787
12:00+3сз81496100 0.1 1014878
15:00+8ссз71279100 0.3 10171337
18:00+9с6107099 0.3 10181458
21:00+5сз38815 0.3 1021143
10 мая, пн
пн1000:00+4ссз410850 0.0 1023177
03:00+3ссз411860 0.0 1025218
06:00+3с5138522 0.0 1027317
09:00+9ссв8136015 0.0 10271113
12:00+12ссв911480 0.0 10271270
15:00+13ссв911495 0.0 10261290
18:00+12ссв711595 0.0 10261038
21:00+9ссв614695 0.0 1027369
11 мая, вт
вт1100:00+8св615725 0.0 1027370
03:00+7св615835 0.0 1027390
06:00+7св715830 0.0 1027421
09:00+12св812715 0.0 1027537
12:00+16всв810665 0.0 1026883
15:00+18всв786647 0.0 10251208
18:00+16всв4878100 0.0 1026306
21:00+13св499073 0.4 1026232